| time (UTC) | temp F | wind direction | speed MPH | gust MPH | rain 1hr in | rain 24hr in | rain mn in | humidity % | barometer mb |
| 20260905050519 | 79 | 215 | 1.0 | 2.0 | 0.00 | 0.50 | 0.00 | 82 | 1011.2 |
| 20260905045539 | 79 | 0.0 | 0.0 | 0.00 | 0.49 | 0.00 | 82 | 1010.9 | |
| 20260905044520 | 79 | 0.0 | 0.0 | 0.00 | 0.49 | 0.00 | 82 | 1010.9 | |
| 20260905043520 | 79 | 0.0 | 0.0 | 0.00 | 0.49 | 0.00 | 82 | 1010.9 | |
| 20260905042519 | 79 | 0.0 | 0.0 | 0.00 | 0.49 | 0.00 | 82 | 1011.0 | |
| 20260905041520 | 79 | 0.0 | 0.0 | 0.00 | 0.49 | 0.00 | 82 | 1011.1 | |
| 20260905040520 | 79 | 0.0 | 0.0 | 0.00 | 0.49 | 0.00 | 82 | 1011.0 | |
| 20260905035520 | 79 | 0.0 | 0.0 | 0.00 | 0.49 | 0.49 | 81 | 1010.9 | |
| 20260905034521 | 79 | 0.0 | 0.0 | 0.00 | 0.49 | 0.49 | 81 | 1011.0 | |
| 20260905033521 | 79 | 0.0 | 0.0 | 0.00 | 0.49 | 0.49 | 81 | 1011.2 | |
| 20260905032521 | 80 | 0.0 | 0.0 | 0.00 | 0.49 | 0.49 | 80 | 1011.3 | |
| 20260905031538 | 80 | 195 | 0.0 | 1.0 | 0.00 | 0.49 | 0.49 | 81 | 1011.5 |
| 20260905030519 | 80 | 0.0 | 0.0 | 0.00 | 0.49 | 0.49 | 81 | 1011.5 | |
| 20260905025516 | 79 | 162 | 0.0 | 1.0 | 0.00 | 0.49 | 0.49 | 82 | 1011.6 |
| 20260905024516 | 79 | 356 | 0.0 | 1.0 | 0.00 | 0.49 | 0.49 | 83 | 1011.6 |
| 20260905023516 | 79 | 27 | 0.0 | 1.0 | 0.00 | 0.49 | 0.49 | 83 | 1011.6 |
| 20260905022536 | 79 | 0.0 | 0.0 | 0.00 | 0.49 | 0.49 | 83 | 1011.5 | |
| 20260905021557 | 79 | 329 | 0.0 | 1.0 | 0.00 | 0.49 | 0.49 | 83 | 1011.5 |
| 20260905020516 | 79 | 218 | 0.0 | 1.0 | 0.00 | 0.49 | 0.49 | 83 | 1011.5 |
| 20260905015516 | 80 | 20 | 0.0 | 1.0 | 0.00 | 0.49 | 0.49 | 83 | 1011.5 |
| 20260905014517 | 80 | 316 | 0.0 | 0.0 | 0.00 | 0.49 | 0.49 | 83 | 1011.7 |
| 20260905013537 | 80 | 0.0 | 0.0 | 0.00 | 0.49 | 0.49 | 83 | 1011.6 | |
| 20260905012517 | 80 | 215 | 0.0 | 0.0 | 0.00 | 0.49 | 0.49 | 83 | 1011.6 |
| 20260905011517 | 80 | 355 | 0.0 | 0.0 | 0.00 | 0.49 | 0.49 | 83 | 1011.6 |
| 20260905010518 | 80 | 0.0 | 0.0 | 0.00 | 0.49 | 0.49 | 83 | 1011.6 | |
| 20260905005538 | 80 | 204 | 0.0 | 1.0 | 0.00 | 0.49 | 0.49 | 82 | 1011.6 |
| 20260905004518 | 80 | 255 | 0.0 | 0.0 | 0.00 | 0.49 | 0.49 | 82 | 1011.7 |
| 20260905003538 | 80 | 84 | 0.0 | 0.0 | 0.00 | 0.49 | 0.49 | 81 | 1011.6 |
| 20260905002518 | 80 | 0.0 | 0.0 | 0.00 | 0.49 | 0.49 | 80 | 1011.4 | |
| 20260905001518 | 80 | 14 | 0.0 | 0.0 | 0.00 | 0.49 | 0.49 | 78 | 1011.2 |
| 20260905000518 | 80 | 341 | 0.0 | 1.0 | 0.00 | 0.49 | 0.49 | 77 | 1011.1 |
| 20260904235515 | 80 | 215 | 0.0 | 0.0 | 0.00 | 0.49 | 0.49 | 77 | 1011.0 |
| 20260904234516 | 81 | 255 | 0.0 | 1.0 | 0.00 | 0.49 | 0.49 | 76 | 1011.0 |
| 20260904233556 | 81 | 0.0 | 0.0 | 0.00 | 0.49 | 0.49 | 76 | 1011.0 | |
| 20260904232516 | 81 | 49 | 0.0 | 0.0 | 0.00 | 0.49 | 0.49 | 75 | 1011.2 |
| 20260904231516 | 82 | 2 | 0.0 | 1.0 | 0.00 | 0.49 | 0.49 | 75 | 1011.3 |
| 20260904230517 | 82 | 317 | 0.0 | 0.0 | 0.00 | 0.49 | 0.49 | 75 | 1011.3 |
| 20260904225517 | 82 | 189 | 0.0 | 0.0 | 0.00 | 0.49 | 0.49 | 74 | 1011.7 |
| 20260904224517 | 82 | 0.0 | 0.0 | 0.00 | 0.49 | 0.49 | 74 | 1011.9 | |
| 20260904223517 | 83 | 0.0 | 0.0 | 0.00 | 0.49 | 0.49 | 74 | 1012.1 | |
| 20260904222517 | 83 | 145 | 0.0 | 1.0 | 0.00 | 0.49 | 0.49 | 73 | 1012.1 |
| 20260904221517 | 83 | 0.0 | 0.0 | 0.00 | 0.49 | 0.49 | 72 | 1012.1 | |
| 20260904220538 | 83 | 352 | 0.0 | 1.0 | 0.00 | 0.49 | 0.49 | 72 | 1011.9 |
| 20260904215518 | 84 | 161 | 0.0 | 0.0 | 0.00 | 0.49 | 0.49 | 72 | 1011.8 |
| 20260904214518 | 84 | 176 | 0.0 | 1.0 | 0.00 | 0.49 | 0.49 | 71 | 1011.9 |
| 20260904213518 | 85 | 127 | 0.0 | 1.0 | 0.00 | 0.49 | 0.49 | 70 | 1011.7 |
| 20260904212519 | 85 | 98 | 0.0 | 1.0 | 0.00 | 0.49 | 0.49 | 70 | 1011.7 |
| 20260904211518 | 85 | 284 | 0.0 | 0.0 | 0.00 | 0.49 | 0.49 | 69 | 1011.8 |
| 20260904210518 | 85 | 0.0 | 0.0 | 0.00 | 0.49 | 0.49 | 68 | 1011.7 | |
| 20260904205539 | 85 | 0.0 | 0.0 | 0.00 | 0.49 | 0.49 | 66 | 1011.9 | |
| 20260904204516 | 86 | 146 | 0.0 | 0.0 | 0.00 | 0.49 | 0.49 | 66 | 1011.8 |
| 20260904203536 | 86 | 145 | 0.0 | 0.0 | 0.00 | 0.49 | 0.49 | 64 | 1011.9 |
| 20260904202516 | 85 | 117 | 0.0 | 1.0 | 0.00 | 0.49 | 0.49 | 64 | 1011.8 |
| 20260904201516 | 85 | 203 | 0.0 | 1.0 | 0.00 | 0.49 | 0.49 | 65 | 1012.0 |
| 20260904200537 | 86 | 218 | 0.0 | 1.0 | 0.00 | 0.49 | 0.49 | 63 | 1012.2 |
| 20260904195517 | 86 | 171 | 0.0 | 2.0 | 0.00 | 0.49 | 0.49 | 61 | 1012.3 |
| 20260904194537 | 87 | 203 | 0.0 | 2.0 | 0.00 | 0.49 | 0.49 | 61 | 1012.3 |
| 20260904193517 | 88 | 150 | 0.0 | 2.0 | 0.00 | 0.49 | 0.49 | 58 | 1012.3 |
| 20260904192517 | 90 | 117 | 0.0 | 1.0 | 0.00 | 0.49 | 0.49 | 58 | 1012.5 |
| 20260904191518 | 91 | 99 | 1.0 | 1.0 | 0.00 | 0.49 | 0.49 | 56 | 1012.5 |
| 20260904190538 | 91 | 91 | 0.0 | 3.0 | 0.00 | 0.49 | 0.49 | 56 | 1012.6 |
| 20260904185558 | 92 | 91 | 1.0 | 2.0 | 0.00 | 0.49 | 0.49 | 55 | 1012.8 |
| 20260904184518 | 94 | 91 | 1.0 | 3.0 | 0.00 | 0.49 | 0.49 | 55 | 1012.9 |
| 20260904183518 | 93 | 90 | 1.0 | 2.0 | 0.00 | 0.49 | 0.49 | 55 | 1013.0 |
| 20260904182518 | 93 | 92 | 1.0 | 1.0 | 0.00 | 0.49 | 0.49 | 54 | 1013.0 |
| 20260904181539 | 94 | 91 | 1.0 | 1.0 | 0.00 | 0.49 | 0.49 | 53 | 1012.9 |
| 20260904180516 | 93 | 91 | 1.0 | 1.0 | 0.00 | 0.49 | 0.49 | 55 | 1013.1 |
| 20260904175556 | 93 | 90 | 1.0 | 1.0 | 0.00 | 0.49 | 0.49 | 56 | 1013.0 |
| 20260904174516 | 92 | 90 | 1.0 | 3.0 | 0.00 | 0.49 | 0.49 | 57 | 1013.1 |
| 20260904173536 | 92 | 91 | 1.0 | 2.0 | 0.00 | 0.49 | 0.49 | 55 | 1013.0 |
| 20260904172517 | 92 | 91 | 1.0 | 3.0 | 0.00 | 0.49 | 0.49 | 56 | 1013.0 |
| 20260904171516 | 92 | 90 | 1.0 | 2.0 | 0.00 | 0.49 | 0.49 | 56 | 1013.1 |
| 20260904170517 | 92 | 90 | 1.0 | 2.0 | 0.00 | 0.49 | 0.49 | 55 | 1013.0 |
| 20260904165537 | 91 | 90 | 1.0 | 4.0 | 0.00 | 0.49 | 0.49 | 56 | 1013.1 |
| 20260904164517 | 91 | 90 | 1.0 | 2.0 | 0.00 | 0.49 | 0.49 | 57 | 1013.2 |
| 20260904163517 | 91 | 91 | 1.0 | 3.0 | 0.00 | 0.49 | 0.49 | 58 | 1013.3 |
| 20260904162517 | 91 | 230 | 2.0 | 3.0 | 0.00 | 0.49 | 0.49 | 58 | 1013.3 |
| 20260904161517 | 90 | 230 | 2.0 | 3.0 | 0.00 | 0.49 | 0.49 | 57 | 1013.3 |
| 20260904160516 | 90 | 257 | 1.0 | 4.0 | 0.00 | 0.49 | 0.49 | 57 | 1013.3 |
| 20260904155516 | 90 | 240 | 1.0 | 5.0 | 0.00 | 0.49 | 0.49 | 58 | 1013.4 |
| 20260904154517 | 89 | 250 | 1.0 | 4.0 | 0.00 | 0.49 | 0.49 | 58 | 1013.2 |
| 20260904153537 | 89 | 203 | 1.0 | 3.0 | 0.00 | 0.49 | 0.49 | 59 | 1013.2 |
| 20260904152517 | 89 | 228 | 1.0 | 4.0 | 0.00 | 0.49 | 0.49 | 60 | 1013.4 |
| 20260904151517 | 89 | 244 | 1.0 | 3.0 | 0.00 | 0.49 | 0.49 | 59 | 1013.4 |
| 20260904150517 | 88 | 247 | 1.0 | 3.0 | 0.00 | 0.49 | 0.49 | 60 | 1013.2 |
| 20260904145517 | 87 | 192 | 1.0 | 3.0 | 0.00 | 0.49 | 0.49 | 61 | 1013.2 |
| 20260904144517 | 87 | 185 | 1.0 | 3.0 | 0.00 | 0.49 | 0.49 | 62 | 1013.2 |
| 20260904143516 | 87 | 214 | 1.0 | 3.0 | 0.00 | 0.49 | 0.49 | 62 | 1013.1 |
| 20260904142537 | 87 | 200 | 1.0 | 4.0 | 0.00 | 0.49 | 0.49 | 64 | 1013.3 |
| 20260904141516 | 86 | 233 | 0.0 | 3.0 | 0.00 | 0.49 | 0.49 | 65 | 1013.3 |
| 20260904140516 | 85 | 205 | 1.0 | 3.0 | 0.00 | 0.49 | 0.49 | 67 | 1013.3 |
| 20260904135517 | 85 | 214 | 1.0 | 3.0 | 0.00 | 0.49 | 0.49 | 68 | 1013.3 |
| 20260904134517 | 85 | 231 | 1.0 | 4.0 | 0.00 | 0.49 | 0.49 | 70 | 1013.1 |
| 20260904133517 | 84 | 180 | 1.0 | 3.0 | 0.00 | 0.49 | 0.49 | 70 | 1013.2 |
| 20260904132517 | 82 | 213 | 0.0 | 2.0 | 0.00 | 0.49 | 0.49 | 74 | 1013.1 |
| 20260904131517 | 80 | 184 | 0.0 | 2.0 | 0.00 | 0.49 | 0.49 | 77 | 1013.0 |
| 20260904130520 | 79 | 170 | 1.0 | 2.0 | 0.00 | 0.49 | 0.49 | 81 | 1013.1 |
| 20260904125519 | 78 | 201 | 0.0 | 1.0 | 0.00 | 0.49 | 0.49 | 84 | 1013.2 |
| 20260904124519 | 77 | 191 | 0.0 | 2.0 | 0.00 | 0.49 | 0.49 | 85 | 1013.1 |
| 20260904123520 | 77 | 223 | 0.0 | 1.0 | 0.00 | 0.49 | 0.49 | 86 | 1013.1 |
| 20260904122520 | 76 | 179 | 0.0 | 1.0 | 0.00 | 0.49 | 0.49 | 87 | 1013.0 |
| 20260904121519 | 76 | 206 | 0.0 | 1.0 | 0.00 | 0.49 | 0.49 | 89 | 1012.9 |
| 20260904120540 | 76 | 189 | 0.0 | 1.0 | 0.00 | 0.49 | 0.49 | 90 | 1013.2 |
| 20260904115520 | 75 | 225 | 0.0 | 2.0 | 0.00 | 0.49 | 0.49 | 90 | 1013.1 |
| 20260904114520 | 75 | 210 | 1.0 | 2.0 | 0.00 | 0.49 | 0.49 | 90 | 1013.2 |
| 20260904113540 | 75 | 117 | 0.0 | 1.0 | 0.00 | 0.49 | 0.49 | 91 | 1013.1 |
| 20260904112521 | 75 | 163 | 0.0 | 1.0 | 0.00 | 0.49 | 0.49 | 90 | 1013.0 |
| 20260904111541 | 75 | 262 | 0.0 | 0.0 | 0.00 | 0.49 | 0.49 | 91 | 1013.1 |
| 20260904110521 | 75 | 187 | 0.0 | 2.0 | 0.00 | 0.49 | 0.49 | 91 | 1012.9 |
| 20260904105521 | 74 | 0.0 | 0.0 | 0.00 | 0.49 | 0.49 | 91 | 1012.7 | |
| 20260904104521 | 74 | 0.0 | 0.0 | 0.00 | 0.50 | 0.49 | 91 | 1012.5 | |
| 20260904103522 | 74 | 114 | 0.0 | 1.0 | 0.00 | 0.50 | 0.49 | 91 | 1012.4 |
| 20260904102542 | 74 | 200 | 0.0 | 0.0 | 0.00 | 0.69 | 0.49 | 91 | 1012.4 |
| 20260904101522 | 74 | 0.0 | 0.0 | 0.00 | 0.71 | 0.49 | 91 | 1012.4 | |
| 20260904100522 | 74 | 196 | 0.0 | 1.0 | 0.00 | 0.71 | 0.49 | 91 | 1012.6 |
| 20260904095522 | 74 | 0.0 | 0.0 | 0.00 | 0.71 | 0.49 | 91 | 1012.6 | |
| 20260904094523 | 74 | 193 | 0.0 | 1.0 | 0.00 | 0.71 | 0.49 | 91 | 1012.4 |
| 20260904093523 | 74 | 0.0 | 0.0 | 0.00 | 0.71 | 0.49 | 91 | 1012.5 | |
| 20260904092523 | 74 | 183 | 0.0 | 1.0 | 0.00 | 0.71 | 0.49 | 91 | 1012.4 |
| 20260904091523 | 75 | 328 | 0.0 | 1.0 | 0.00 | 0.71 | 0.49 | 90 | 1012.4 |
| 20260904090523 | 75 | 0.0 | 0.0 | 0.00 | 0.71 | 0.49 | 90 | 1012.3 | |
| 20260904085523 | 75 | 0.0 | 0.0 | 0.00 | 0.71 | 0.49 | 91 | 1012.5 | |
| 20260904084523 | 75 | 222 | 0.0 | 1.0 | 0.00 | 0.71 | 0.49 | 91 | 1012.6 |
| 20260904083524 | 75 | 186 | 0.0 | 1.0 | 0.00 | 0.71 | 0.49 | 91 | 1012.9 |
| 20260904082524 | 75 | 235 | 0.0 | 1.0 | 0.00 | 0.71 | 0.49 | 91 | 1012.9 |
| 20260904081524 | 75 | 0.0 | 0.0 | 0.04 | 0.71 | 0.49 | 91 | 1013.0 | |
| 20260904080524 | 75 | 0.0 | 0.0 | 0.10 | 0.74 | 0.49 | 91 | 1013.2 | |
| 20260904075524 | 75 | 217 | 1.0 | 2.0 | 0.16 | 0.78 | 0.49 | 91 | 1013.0 |
| 20260904074525 | 75 | 193 | 0.0 | 1.0 | 0.24 | 0.78 | 0.49 | 91 | 1013.0 |
| 20260904073525 | 75 | 111 | 0.0 | 1.0 | 0.32 | 0.78 | 0.49 | 91 | 1012.9 |
| 20260904072525 | 75 | 55 | 0.0 | 0.0 | 0.40 | 0.78 | 0.49 | 91 | 1013.0 |
| 20260904071518 | 76 | 283 | 0.0 | 2.0 | 0.42 | 0.74 | 0.45 | 90 | 1012.9 |
| 20260904070518 | 76 | 232 | 0.0 | 3.0 | 0.38 | 0.68 | 0.39 | 89 | 1012.9 |
| 20260904065538 | 76 | 274 | 0.0 | 3.0 | 0.33 | 0.62 | 0.33 | 89 | 1013.2 |
| 20260904064518 | 75 | 201 | 1.0 | 2.0 | 0.26 | 0.55 | 0.26 | 89 | 1013.4 |
| 20260904063518 | 76 | 251 | 0.0 | 1.0 | 0.17 | 0.46 | 0.17 | 87 | 1013.3 |
| 20260904062518 | 76 | 219 | 1.0 | 3.0 | 0.09 | 0.38 | 0.09 | 88 | 1013.6 |
| 20260904061516 | 78 | 238 | 1.0 | 3.0 | 0.03 | 0.32 | 0.03 | 89 | 1013.5 |
| 20260904060516 | 79 | 205 | 1.0 | 3.0 | 0.01 | 0.31 | 0.01 | 90 | 1013.2 |
| 20260904055516 | 79 | 207 | 0.0 | 2.0 | 0.00 | 0.30 | 0.00 | 90 | 1013.0 |
| 20260904054536 | 79 | 0.0 | 0.0 | 0.00 | 0.30 | 0.00 | 90 | 1013.0 | |
| 20260904053516 | 79 | 250 | 0.0 | 0.0 | 0.00 | 0.30 | 0.00 | 90 | 1012.7 |
| 20260904052516 | 79 | 14 | 0.0 | 1.0 | 0.00 | 0.30 | 0.00 | 90 | 1012.6 |
| 20260904051517 | 79 | 0.0 | 0.0 | 0.00 | 0.30 | 0.00 | 90 | 1012.7 |